This demonstration page uses our WeatherBlox Daily Observations layout. Learn more.

Hourly Observations for February 26, 2015

Temp ( °F °C ) Dew Point ( °F °C ) Humidity (%) Winds ( mph kmh ) Pressure ( in mb ) Visibility ( mi km ) Precip ( " mm )
12:15 am 00:15 Cloudy 15 -9.6 5 -15 65 65 N 25 41 30.42 1030 10 16.0934 0 0
12:35 am 00:35 Cloudy 14 -10 5 -15.2 66 66 N 20 31 30.45 1031 10 16.0934 0 0
12:55 am 00:55 Cloudy 13 -10.3 4 -15.5 66 66 N 23 37 30.45 1031 10 16.0934 0 0
1:15 am 01:15 Cloudy 13 -10.5 4 -15.5 67 67 N 18 30 30.5 1033 10 16.0934 0 0
1:35 am 01:35 Cloudy 13 -10.3 5 -15.2 68 68 N 21 33 30.5 1033 10 16.0934 0 0
1:55 am 01:55 Cloudy 13 -10.5 5 -15 70 70 N 16 26 30.5 1033 10 16.0934 0 0
2:15 am 02:15 Cloudy 13 -10.8 1 -17.5 58 58 N 25 41 30.53 1034 10 16.0934 0 0
2:35 am 02:35 Mostly Cloudy 11 -11.4 1 -17.4 61 61 N 18 30 30.53 1034 10 16.0934 0 0
2:55 am 02:55 Partly Cloudy 10 -12 2 -16.9 67 67 N 20 31 30.53 1034 10 16.0934 0 0
3:15 am 03:15 Clear 9 -12.6 1 -17 70 70 N 16 26 30.56 1035 10 16.0934 0 0
3:35 am 03:35 Clear 9 -13 1 -17 72 72 N 12 19 30.56 1035 10 16.0934 0 0
3:55 am 03:55 Clear 9 -12.7 1 -17.5 68 68 N 15 24 30.56 1035 10 16.0934 0 0
4:15 am 04:15 Clear 8 -13.1 0 -18 67 67 N 15 24 30.56 1035 10 16.0934 0 0
4:35 am 04:35 Clear 8 -13.3 0 -18 68 68 N 16 26 30.59 1036 10 16.0934 0 0
4:55 am 04:55 Clear 8 -13.5 -1 -18.2 68 68 N 16 26 30.59 1036 10 16.0934 0 0
5:15 am 05:15 Clear 7 -13.7 -1 -18.5 67 67 N 17 28 30.59 1036 10 16.0934 0 0
5:35 am 05:35 Clear 7 -14.1 -1 -18.5 70 70 N 13 20 30.59 1036 10 16.0934 0 0
5:55 am 05:55 Clear 6 -14.7 -1 -18.5 73 73 N 12 19 30.65 1038 10 16.0934 0 0
6:15 am 06:15 Clear 5 -14.8 -2 -19 71 71 N 14 22 30.65 1038 10 16.0934 0 0
6:35 am 06:35 Clear 5 -15 -2 -19.1 71 71 N 14 22 30.65 1038 10 16.0934 0 0
6:55 am 06:55 Clear 4 -15.3 -3 -19.3 72 72 N 15 24 30.65 1038 10 16.0934 0 0
7:15 am 07:15 Clear 4 -15.5 -3 -19.2 74 74 N 10 17 30.65 1038 10 16.0934 0 0
7:35 am 07:35 Sunny 4 -15.3 -2 -19 74 74 N 14 22 30.65 1038 10 16.0934 0 0
7:55 am 07:55 Sunny 5 -15 -2 -19 72 72 N 12 19 30.65 1038 10 16.0934 0 0
8:15 am 08:15 Sunny 6 -14.7 -2 -18.8 71 71 N 16 26 30.68 1039 10 16.0934 0 0
8:35 am 08:35 Sunny 6 -14.2 -1 -18.6 70 70 N 17 28 30.65 1038 10 16.0934 0 0
8:55 am 08:55 Sunny 8 -13.5 -1 -18.5 66 66 N 16 26 30.65 1038 10 16.0934 0 0
9:15 am 09:15 Sunny 9 -12.6 -1 -18.1 64 64 N 18 30 30.65 1038 10 16.0934 0 0
9:35 am 09:35 Sunny 10 -12.4 -1 -18.3 62 62 N 18 30 30.65 1038 10 16.0934 0 0
9:55 am 09:55 Partly Cloudy 11 -11.8 -1 -18.5 58 58 N 22 35 30.65 1038 10 16.0934 0 0
10:15 am 10:15 Sunny 11 -11.5 -1 -18.4 57 57 N 18 30 30.62 1037 10 16.0934 0 0
10:35 am 10:35 Partly Cloudy 12 -11.2 -1 -18.5 55 55 N 16 26 30.62 1037 10 16.0934 0 0
10:55 am 10:55 Sunny 13 -10.5 -2 -18.8 51 51 N 21 33 30.62 1037 10 16.0934 0 0
11:15 am 11:15 Sunny 13 -10.3 -2 -19 49 49 N 16 26 30.62 1037 10 16.0934 0 0
11:35 am 11:35 Sunny 14 -10.1 -3 -19.5 46 46 N 16 26 30.65 1038 10 16.0934 0 0
11:55 am 11:55 Sunny 15 -9.6 -3 -19.4 45 45 N 12 19 30.65 1038 10 16.0934 0 0
12:15 pm 12:15 Sunny 15 -9.2 -3 -19.7 43 43 N 14 22 30.65 1038 10 16.0934 0 0
12:35 pm 12:35 Sunny 17 -8.6 -4 -19.9 40 40 N 12 19 30.62 1037 10 16.0934 0 0
12:55 pm 12:55 Sunny 17 -8.3 -4 -20.2 38 38 N 12 19 30.59 1036 10 16.0934 0 0
1:15 pm 13:15 Sunny 18 -8 -5 -20.5 36 36 N 16 26 30.59 1036 10 16.0934 0 0
1:35 pm 13:35 Sunny 18 -7.7 -5 -20.8 34 34 N 12 19 30.59 1036 10 16.0934 0 0
1:55 pm 13:55 Sunny 19 -7 -7 -21.4 31 31 NNW 12 19 30.59 1036 10 16.0934 0 0
2:10 pm 14:10 Sunny 19 -7.5 -7 -21.6 32 32 N 13 20 30.59 1036 10 16.0934 0 0
2:35 pm 14:35 Sunny 19 -7.1 -7 -21.9 30 30 N 17 28 30.59 1036 10 16.0934 0 0
2:55 pm 14:55 Sunny 19 -7 -8 -22.3 29 29 NNE 9 15 30.56 1035 10 16.0934 0 0
3:15 pm 15:15 Sunny 19 -7 -9 -23 27 27 N 14 22 30.56 1035 10 16.0934 0 0
3:35 pm 15:35 Sunny 20 -6.9 -10 -23.3 26 26 NNW 12 19 30.56 1035 10 16.0934 0 0
3:55 pm 15:55 Sunny 20 -6.9 -9 -23 27 27 NNE 15 24 30.56 1035 10 16.0934 0 0
4:15 pm 16:15 Sunny 19 -7 -9 -22.9 27 27 NNE 9 15 30.56 1035 10 16.0934 0 0
4:35 pm 16:35 Sunny 19 -7.1 -9 -23 27 27 NNE 14 22 30.56 1035 10 16.0934 0 0
4:55 pm 16:55 Sunny 19 -7.3 -10 -23.2 27 27 NNE 12 19 30.56 1035 10 16.0934 0 0
5:15 pm 17:15 Sunny 18 -7.6 -9 -23 28 28 N 10 17 30.56 1035 10 16.0934 0 0
5:35 pm 17:35 Sunny 18 -7.6 -9 -22.7 29 29 N 9 15 30.56 1035 10 16.0934 0 0
5:55 pm 17:55 Sunny 17 -8.3 -9 -22.6 31 31 NNE 10 17 30.56 1035 10 16.0934 0 0
6:15 pm 18:15 Sunny 16 -9.1 -9 -22.5 33 33 NNE 9 15 30.62 1037 10 16.0934 0 0
6:35 pm 18:35 Clear 13 -10.4 -9 -22.6 36 36 NNE 7 11 30.62 1037 10 16.0934 0 0
6:55 pm 18:55 Clear 10 -12.2 -9 -22.6 42 42 NNE 6 9 30.65 1038 10 16.0934 0 0
7:15 pm 19:15 Clear 8 -13.4 -10 -23.1 44 44 NNE 7 11 30.65 1038 10 16.0934 0 0
7:35 pm 19:35 Clear 7 -14 -10 -23.3 46 46 NNE 8 13 30.71 1040 10 16.0934 0 0
7:55 pm 19:55 Clear 6 -14.2 -10 -23.1 47 47 NNE 8 13 30.71 1040 10 16.0934 0 0
8:15 pm 20:15 Clear 5 -14.8 -9 -23 50 50 NNE 7 11 30.71 1040 10 16.0934 0 0
8:35 pm 20:35 Clear 4 -15.4 -10 -23.5 50 50 NNE 7 11 30.71 1040 10 16.0934 0 0
8:55 pm 20:55 Clear 3 -16.1 -10 -23.2 55 55 NNE 5 7 30.71 1040 10 16.0934 0 0
9:15 pm 21:15 Clear 2 -16.4 -10 -23.2 56 56 NNE 7 11 30.71 1040 10 16.0934 0 0
9:35 pm 21:35 Clear 2 -16.5 -9 -23 57 57 NNE 8 13 30.71 1040 10 16.0934 0 0
9:55 pm 21:55 Clear 2 -16.4 -10 -23.1 56 56 NNE 6 9 30.74 1041 10 16.0934 0 0
10:15 pm 22:15 Clear 0 -17.6 -10 -23.1 62 62 NNE 5 7 30.77 1042 10 16.0934 0 0
10:35 pm 22:35 Clear 1 -17.5 -10 -23.2 61 61 NE 5 7 30.77 1042 10 16.0934 0 0
10:55 pm 22:55 Clear 1 -17.5 -9 -22.9 63 63 Calm 30.77 1042 10 16.0934 0 0
11:15 pm 23:15 Clear 1 -17.5 -9 -23 62 62 NE 6 9 30.77 1042 10 16.0934 0 0
11:35 pm 23:35 Clear -1 -18.1 -9 -23 66 66 NE 3 6 30.77 1042 10 16.0934 0 0
11:55 pm 23:55 Clear 0 -17.6 -9 -22.5 66 66 NE 3 6 30.77 1042 10 16.0934 0 0

Powered by AerisWeather